Flag for Romania Weather past 2 weeks in Bucharest, Romania

Now
36 °F

Light rain. Partly sunny.


Feels Like: 25 °F
Forecast: 37 / 41 °F
Wind: 17 mph from Northeast

Location: Bucharest / Imh

Current Time: Mar 6, 2015 at 12:05:42 PM

Latest Report: Mar 6, 2015 at 11:30 AM


Visibility: 6 mi

Pressure: 30.24 "Hg

Humidity: 93%

Dew point: 34 °F

Location of BucharestLocation

Historic Weather in Bucharest — Graph

°F

Bucharest temperature yesterday

Maximum temperature yesterday: 45 °F (at 11:00 AM)
Minimum temperature yesterday: 36 °F (at 5:00 AM)
Average temperature yesterday: 41 °F

Past Weeks' High & Low Weather Summary

 TemperatureHumidityPressure
High57 °F (Feb 28, 1:30 PM)100% (Feb 21, 11:30 PM)30.42 "Hg (Feb 21, 11:30 PM)
Low28 °F (Feb 22, 4:30 AM)32% (Mar 4, 3:30 PM)29.71 "Hg (Feb 24, 2:00 PM)
Average44 °F84%30.02 "Hg
* Reported Feb 19 11:00 AM — Mar 6 11:00 AM, Bucharest, Weather by CustomWeather, © 2015

Note: Actual official high and low records may vary slightly from our data, if they occured in-between our weather recording intervals... More about our weather records

Advertising

Bucharest weather history for previous 24 hours

 ConditionsComfort  
Time TempWeatherWind HumidityBarometerVisibility
11:00 AM
Fri, Mar 6
34 °FFog.20 mph100%30.24 "Hg2 mi
10:30 AM34 °FSnow showers. Fog.17 mph93%30.21 "Hg1 mi
10:00 AM34 °FSnow showers. Fog.16 mph93%30.24 "Hg1 mi
9:30 AM34 °FSnow showers. Broken clouds.15 mph93%30.24 "Hg1 mi
9:00 AM34 °FSnow. Low clouds.16 mph93%30.21 "Hg1 mi
8:30 AM36 °FRain. Mostly cloudy.18 mph93%30.21 "Hg2 mi
8:00 AM36 °FLight rain. Fog.21 mph100%30.21 "Hg2 mi
7:30 AM36 °FRain. Fog.20 mph93%30.18 "Hg2 mi
7:00 AM36 °FRain. Fog.20 mph93%30.18 "Hg2 mi
6:30 AM36 °FLight rain. Fog.17 mph93%30.18 "Hg3 mi
6:00 AM36 °FLight rain. Fog.15 mph93%30.18 "Hg2 mi
5:30 AM36 °FLight rain. Fog.18 mph93%30.18 "Hg2 mi
5:00 AM37 °FLight rain. Fog.16 mph93%30.21 "Hg2 mi
4:30 AM37 °FLight rain. Fog.16 mph93%30.21 "Hg3 mi
4:00 AM37 °FLight rain. Mostly cloudy.18 mph93%30.18 "Hg5 mi
3:30 AM37 °FLight rain. Fog.15 mph93%30.21 "Hg3 mi
3:00 AM37 °FLight rain. Fog.15 mph93%30.21 "Hg3 mi
2:30 AM37 °FLight rain. Fog.15 mph93%30.21 "Hg3 mi
2:00 AM37 °FLight rain. Fog.13 mph100%30.21 "Hg3 mi
1:30 AM39 °FLight rain. Mostly cloudy.13 mph93%30.21 "HgN/A
1:00 AM39 °FLight rain. Mostly cloudy.14 mph93%30.24 "HgN/A
12:30 AM39 °FLight rain. Mostly cloudy.14 mph93%30.24 "Hg5 mi
12:00 AM39 °FLight rain. Mostly cloudy.16 mph93%30.24 "HgN/A
11:30 PM
Thu, Mar 5
39 °FLight rain. Fog.15 mph93%30.27 "Hg3 mi
11:00 PM39 °FLight rain. Mostly cloudy.14 mph93%30.27 "Hg4 mi
10:30 PM39 °FLight rain. Mostly cloudy.15 mph93%30.24 "HgN/A
10:00 PM39 °FLight rain. Mostly cloudy.20 mph87%30.24 "Hg5 mi
9:30 PM41 °FLight rain. Mostly cloudy.17 mph87%30.24 "Hg5 mi
9:00 PM41 °FLight rain. Overcast.15 mph87%30.24 "Hg4 mi
8:30 PM41 °FRain. Fog.17 mph87%30.24 "Hg2 mi
8:00 PM41 °FLight rain. Fog.18 mph87%30.24 "Hg3 mi
7:30 PM43 °FLight rain. Partly cloudy.16 mph81%30.21 "Hg4 mi
7:00 PM43 °FLight rain. Passing clouds.20 mph81%30.21 "Hg4 mi
6:30 PM43 °FPassing clouds.20 mph76%30.21 "HgN/A
6:00 PM43 °FScattered clouds.18 mph76%30.18 "HgN/A
5:30 PM43 °FPassing clouds.21 mph76%30.18 "HgN/A
5:00 PM45 °FLight rain. Scattered clouds.17 mph71%30.18 "HgN/A
4:30 PM45 °FPassing clouds.21 mph71%30.18 "HgN/A
4:00 PM45 °FPassing clouds.21 mph71%30.18 "HgN/A
3:30 PM45 °FPassing clouds.18 mph71%30.21 "HgN/A
3:00 PM45 °FSunny.22 mph71%30.21 "Hg10 mi
2:30 PM45 °FSunny.21 mph66%30.21 "Hg10 mi
2:00 PM45 °FPassing clouds.23 mph66%30.21 "HgN/A
1:30 PM45 °FSunny.24 mph66%30.21 "Hg10 mi
1:00 PM45 °FPassing clouds.25 mph66%30.24 "HgN/A
12:30 PM45 °FSunny.24 mph66%30.24 "Hg10 mi
12:00 PM45 °FSunny.25 mph66%30.24 "Hg10 mi
Weather by CustomWeather, © 2015

See weather overviewHow to use our weather pages